This is the latest recevied weather packets stored in our database for station/object N9BSW. If no packets are shown the sender has not sent any weather packets the latest 10 day(s).
| Time | Temp. | Humidity | Pressure | Rain* | Wind** | Luminosity | Snow |
|---|---|---|---|---|---|---|---|
| 1777641016 | 8.89° C | 87% | 1013.7 hPa | 0 mm | - | 192 W/m² | - |
| 1777640712 | 8.89° C | 86% | 1013.7 hPa | 0 mm | - | 91 W/m² | - |
| 1777640409 | 9.44° C | 86% | 1013.4 hPa | 0 mm | - | 112 W/m² | - |
| 1777640107 | 9.44° C | 87% | 1013.4 hPa | 0 mm | - | 93 W/m² | - |
| 1777639803 | 9.44° C | 88% | 1013.3 hPa | 0 mm | - | 159 W/m² | - |
| 1777639500 | 9.44° C | 88% | 1013.4 hPa | 0 mm | - | 118 W/m² | - |
| 1777639196 | 8.89° C | 89% | 1013.3 hPa | 0 mm | - | 181 W/m² | - |
| 1777638893 | 8.89° C | 89% | 1013.3 hPa | 0 mm | - | 99 W/m² | - |
| 1777638589 | 8.89° C | 89% | 1013.1 hPa | 0 mm | - | 105 W/m² | - |
| 1777638286 | 9.44° C | 91% | 1012.9 hPa | 0 mm | - | 77 W/m² | - |
| 1777637981 | 9.44° C | 93% | 1013.1 hPa | 0 mm | - | 33 W/m² | - |
| 1777637678 | 9.44° C | 94% | 1012.8 hPa | 0 mm | - | 23 W/m² | - |
| 1777637375 | 9.44° C | 94% | 1012.6 hPa | 0 mm | - | 19 W/m² | - |
| 1777637072 | 9.44° C | 94% | 1012.7 hPa | 0 mm | - | 18 W/m² | - |
| 1777636767 | 9.44° C | 94% | 1012.4 hPa | 0 mm | - | 33 W/m² | - |
| 1777636464 | 9.44° C | 94% | 1012.6 hPa | 0 mm | - | 25 W/m² | - |
| 1777636160 | 9.44° C | 95% | 1012.5 hPa | 0 mm | - | 22 W/m² | - |
| 1777635855 | 9.44° C | 95% | 1012.4 hPa | 0 mm | - | 10 W/m² | - |
| 1777635552 | 9.44° C | 95% | 1012.4 hPa | 0 mm | - | 12 W/m² | - |
| 1777635249 | 9.44° C | 94% | 1012.3 hPa | 0 mm | - | 12 W/m² | - |
| 1777634945 | 9.44° C | 94% | 1012.3 hPa | 0 mm | - | 5 W/m² | - |
| 1777634642 | 9.44° C | 94% | 1012 hPa | 0 mm | - | 5 W/m² | - |
| 1777634340 | 9.44° C | 94% | 1012.1 hPa | 0 mm | - | 7 W/m² | - |
| 1777634035 | 9.44° C | 94% | 1012 hPa | 0 mm | - | 6 W/m² | - |
| 1777633732 | 8.89° C | 93% | 1012.3 hPa | 0 mm | - | 5 W/m² | - |
* Rain latest hour (hover to see other rain measurements)
** Current wind speed in m/s (hover to see current wind gust speed)